Showing default

O3B FM16, 43232

Orbit data source: Space-Track

O3B FM16, 43232 is a payload satellite owned by O3B SES (JE) that was launched on Fri, 09 Mar 2018 UTC via a SOYUZ-ST-B launch vehicle from the French Guiana (FRGUI). Payload-class satellites include a variety of spacecraft equipped with specific instruments for various scientific and technological missions. These include communications satellites like Starlink; space stations such as the ISS; scientific satellites like the Hubble; Earth observation satellites from companies like Planet Labs, Umbra, and HawkEye 360; GPS; miniature CubeSats for education and research; and military/defense satellites.

Loading next visibility...
Identifier
43232, 2018-024B
Orbit
Active
Country
Flag of UnknownUnknown / O3B
Related business
Manufacturer
Thales Alenia
Mission
Operational Commercial Communications
Bus & Motor
PRISMA?, LS-400 AOCS?
Mass
700 kg wet, ~500 kg dry
Launch date (UTC)
2018-03-09 (8 years ago)
Launch vehicle
SOYUZ-ST-B
Launch site
French Guiana (FRGUI)
Object type
Payload
Rocket body
Debris
Shape & HBR
Trap Box + 2 Pan, 6.0 m
Radar Cross Section
21.980 m², Large (>1 m²)

Expand to show TLE details & history
Last TLE update: 1 day ago

TLE from 1 day ago
0 O3B FM16
1 43232U 18024B   25306.26946492 -.00000011  00000-0  00000+0 0  9999
2 43232   0.0445 352.5086 0002950 226.2796 141.1985  5.00115655139592
Epoch: 2025-11-02T06:28Z
TLE epoch observation values (Epoch: 2025-11-02T06:28:01.769Z)
Latitude
0.01°
Longitude
-138.79491°
Altitude
8,067.691 km
Speed
5.253 km/s
True Right ascension
00h 00m 00s
True Declination
0° 00' 36"
Sunlit
Object was in daylight at epoch
Visualization orbit readout
Latitude
Unknown
Longitude
Unknown
Altitude
Unknown
Speed
Unknown
Apparent Right ascension
Unknown
Apparent Declination
Unknown
Sunlit
N/A
Visualization observer readout
Local Sidereal Time
10:57:03
Azimuth
Unknown
Elevation
Unknown
Doppler factor
Unknown
Orbital elements
Apogee altitude
8,073.208 km
Perigee altitude
8,064.684 km
Semi-major axis
14,447.083 km
Eccentricity
0.0003
Inclination
0.0445°
RAAN
352.5086°
Arg. of periapsis
226.2796°
True anomaly
141.21968°
Mean anomaly
141.1985°
Eccentric anomaly
141.20909°
Mean motion
1.24989 °/min
Orbital period
288.02 mins
BSTAR
0
Loading maneuver chart data...
Computing Atmospheric mass density...
Loading historical data...
Loading historical data...
Loading historical data...
Loading historical data...
Loading historical data...
Loading historical data...
Loading historical data...
Other satellites on launch #24 in the year 2018 (2018-03-09 UTC)

Documentation

Showing up to 5 results
|